Location: El Gallo
(32.4380°N, 116.9347°W)
Time: 20:32:58
(UTC+00:00)

FALCON 9 R/B - Pass Details

Date: 01 October 2022
Orbit: 289 x 9943 km, 34.5° (Epoch: 02 December)

Event Time Altitude Azimuth Distance (km) Brightness Sun altitude
Exits shadow 12:42:56 21° 213° (SSW) 722 1.6 -13.3°
Maximum altitude 12:43:08 21° 204° (SSW) 716 1.7 -13.2°
Drops below altitude 10° 12:44:59 10° 149° (SSE) 1,208 3.4 -12.8°
Sets 12:47:30 0° 131° (SE) 2,377 5.3 -12.3°
